Weather History for Newberry, MI

Change the Weather History Date:

Thursday, January 17, 2013

  Actual Average Record
Temperature  
Mean Temperature 6 °F -  
Max Temperature 12 °F 22 °F 43 °F (1913)
Min Temperature 1 °F 7 °F -20 °F (1982)
Degree Days  
Heating Degree Days 58    
Moisture  
Dew Point 4 °F    
Average Humidity 82    
Maximum Humidity 92    
Minimum Humidity 62    
Precipitation  
Precipitation 0.00 in - - ()
Sea Level Pressure  
Sea Level Pressure 30.15 in    
Wind  
Wind Speed 8 mph (West)    
Max Wind Speed 17 mph    
Max Gust Speed 21 mph    
Visibility 6 miles    
Events Snow    
Averages and records for this station are not official NWS values.
T = Trace of Precipitation, MM = Missing Value Source: NWS Daily Summary

Daily Weather History Graph

Daily Weather History Graph

Search for Another Location

Airport:

Trip Planner

Search our weather history database for the weather conditions in past years. The results will help you decide how hot, cold, wet, or windy it might be!

Date:

Astronomy

Jan. 17, 2013 Rise Set
Actual Time 8:19 AM EST 5:25 PM EST
Civil Twilight 7:45 AM EST 5:58 PM EST
Nautical Twilight 7:08 AM EST 6:35 PM EST
Astronomical Twilight 6:32 AM EST 7:11 PM EST
Moon 11:00 AM EST (1/17) No Moon Set
Length of Visible Light 10h 12m
Length of Day
9h 05m
Waxing Crescent, 37% of the Moon is Illuminated
Jan 17
Waxing Crescent
Jan 18
First Quarter
Jan 26
Full
Feb 3
Last Quarter
Feb 10
New

Hourly Weather History & Observations

Time (EST) Temp. Windchill Dew Point Humidity Pressure Visibility Wind Dir Wind Speed Gust Speed Precip Events Conditions
12:14 AM 12.2 °F -1.0 °F 8.6 °F 85% 29.98 in 5.0 mi NW 10.4 mph 17.3 mph N/A   Overcast
12:35 AM 12.2 °F -2.5 °F 6.8 °F 79% 29.99 in 5.0 mi NW 12.7 mph 20.7 mph N/A Snow Light Snow
12:54 AM 10.4 °F 0.8 °F 6.8 °F 85% 30.01 in 7.0 mi NW 5.8 mph - N/A Snow Light Snow
1:14 AM 10.4 °F -0.4 °F 6.8 °F 85% 30.01 in 4.0 mi NNW 6.9 mph - N/A Snow Light Snow
1:35 AM 10.4 °F 0.8 °F 6.8 °F 85% 30.02 in 5.0 mi NNW 5.8 mph - N/A Snow Light Snow
1:54 AM 10.4 °F 2.2 °F 6.8 °F 85% 30.04 in 4.0 mi NNW 4.6 mph - N/A Snow Light Snow
2:15 AM 10.4 °F -0.4 °F 6.8 °F 85% 30.05 in 4.0 mi NNW 6.9 mph - N/A Snow Light Snow
2:35 AM 10.4 °F 0.8 °F 6.8 °F 85% 30.06 in 3.0 mi NW 5.8 mph - N/A Snow Light Snow
2:54 AM 10.4 °F 4.0 °F 6.8 °F 85% 30.08 in 3.0 mi NNW 3.5 mph - N/A Snow Light Snow
3:15 AM 10.4 °F 2.2 °F 6.8 °F 85% 30.09 in 2.5 mi NW 4.6 mph - N/A Snow Light Snow
3:35 AM 10.4 °F 4.0 °F 6.8 °F 85% 30.10 in 1.8 mi NW 3.5 mph - N/A Snow Light Snow
3:54 AM 8.6 °F 2.0 °F 6.8 °F 92% 30.10 in 1.2 mi North 3.5 mph - N/A Snow Light Snow
4:35 AM 8.6 °F - 5.0 °F 85% 30.11 in 7.0 mi Calm Calm - N/A Snow Light Snow
4:54 AM 8.6 °F - 5.0 °F 85% 30.11 in 1.8 mi Calm Calm - N/A Snow Light Snow
5:15 AM 6.8 °F - 3.2 °F 85% 30.12 in 4.0 mi Calm Calm - N/A Snow Light Snow
5:34 AM 6.8 °F -2.0 °F 3.2 °F 85% 30.12 in 10.0 mi WNW 4.6 mph - N/A   Overcast
5:54 AM 8.6 °F 0.1 °F 3.2 °F 79% 30.12 in 10.0 mi WNW 4.6 mph - N/A   Overcast
6:15 AM 8.6 °F -2.6 °F 3.2 °F 79% 30.13 in 10.0 mi West 6.9 mph - N/A   Overcast
6:34 AM 8.6 °F -1.3 °F 3.2 °F 79% 30.13 in 10.0 mi West 5.8 mph - N/A   Overcast
6:55 AM 8.6 °F -1.3 °F 3.2 °F 79% 30.13 in 7.0 mi West 5.8 mph - N/A Snow Light Snow
7:15 AM 6.8 °F -4.8 °F 3.2 °F 85% 30.13 in 7.0 mi West 6.9 mph - N/A Snow Light Snow
7:34 AM 3.2 °F -6.2 °F 1.4 °F 92% 30.13 in 10.0 mi West 4.6 mph - N/A   Scattered Clouds
7:55 AM 3.2 °F -7.8 °F 1.4 °F 92% 30.14 in 10.0 mi West 5.8 mph - N/A   Scattered Clouds
8:15 AM 3.2 °F -6.2 °F 1.4 °F 92% 30.15 in 10.0 mi West 4.6 mph - N/A   Scattered Clouds
8:34 AM 3.2 °F -4.2 °F 1.4 °F 92% 30.16 in 10.0 mi SW 3.5 mph - N/A   Scattered Clouds
8:55 AM 1.4 °F -12.5 °F -0.4 °F 92% 30.17 in 10.0 mi SW 8.1 mph - N/A   Mostly Cloudy
9:15 AM 6.8 °F -5.9 °F 3.2 °F 85% 30.18 in 10.0 mi SW 8.1 mph - N/A   Overcast
9:34 AM 6.8 °F -4.8 °F 3.2 °F 85% 30.18 in 10.0 mi SW 6.9 mph - N/A   Overcast
9:55 AM 8.6 °F -3.7 °F 5.0 °F 85% 30.18 in 10.0 mi SW 8.1 mph - N/A   Overcast
10:14 AM 8.6 °F -2.6 °F 5.0 °F 85% 30.18 in 7.0 mi SW 6.9 mph - N/A   Overcast
10:35 AM 8.6 °F -4.7 °F 5.0 °F 85% 30.19 in 7.0 mi SW 9.2 mph - N/A   Overcast
10:55 AM 8.6 °F -5.5 °F 5.0 °F 85% 30.19 in 7.0 mi WSW 10.4 mph - N/A Snow Light Snow
11:14 AM 10.4 °F -2.4 °F 5.0 °F 79% 30.18 in 10.0 mi SW 9.2 mph - N/A   Overcast
11:35 AM 10.4 °F -4.1 °F 5.0 °F 79% 30.17 in 10.0 mi WSW 11.5 mph - N/A   Overcast
11:54 AM 10.4 °F -4.8 °F 3.2 °F 73% 30.17 in 10.0 mi SW 12.7 mph - N/A   Overcast
12:14 PM 12.2 °F -0.2 °F 5.0 °F 73% 30.16 in 10.0 mi WSW 9.2 mph - N/A   Overcast
12:35 PM 10.4 °F -6.6 °F 5.0 °F 79% 30.16 in 4.0 mi West 16.1 mph - N/A Snow Light Snow
12:54 PM 10.4 °F -4.8 °F 5.0 °F 79% 30.16 in 3.0 mi SW 12.7 mph - N/A   Haze
1:15 PM 12.2 °F -4.8 °F 5.0 °F 73% 30.15 in 3.0 mi WSW 17.3 mph - N/A Snow Light Snow
1:35 PM 12.2 °F -4.3 °F 3.2 °F 67% 30.15 in 5.0 mi West 16.1 mph 20.7 mph N/A   Haze
1:54 PM 12.2 °F -3.1 °F 3.2 °F 67% 30.14 in 7.0 mi WSW 13.8 mph 19.6 mph N/A   Overcast
2:15 PM 12.2 °F -1.0 °F 3.2 °F 67% 30.14 in 7.0 mi WSW 10.4 mph 17.3 mph N/A   Overcast
2:35 PM 12.2 °F -4.8 °F 1.4 °F 62% 30.14 in 10.0 mi West 17.3 mph - N/A   Overcast
2:54 PM 12.2 °F -3.1 °F 3.2 °F 67% 30.14 in 7.0 mi West 13.8 mph 20.7 mph N/A   Overcast
3:15 PM 10.4 °F -5.4 °F 3.2 °F 73% 30.14 in 3.0 mi West 13.8 mph 20.7 mph N/A   Haze
3:35 PM 10.4 °F -4.8 °F 6.8 °F 85% 30.15 in 1.2 mi West 12.7 mph 18.4 mph N/A Snow Light Snow
3:54 PM 10.4 °F -5.4 °F 6.8 °F 85% 30.15 in 0.8 mi WSW 13.8 mph 17.3 mph N/A Snow Light Snow
4:15 PM 10.4 °F -6.6 °F 6.8 °F 85% 30.15 in 0.8 mi West 16.1 mph 20.7 mph N/A Snow Light Snow
4:34 PM 10.4 °F -4.8 °F 6.8 °F 85% 30.15 in 2.0 mi West 12.7 mph 19.6 mph N/A Snow Light Snow
4:55 PM 10.4 °F -5.4 °F 6.8 °F 85% 30.16 in 1.0 mi WSW 13.8 mph 17.3 mph N/A Snow Light Snow
5:14 PM 10.4 °F -4.1 °F 6.8 °F 85% 30.17 in 0.8 mi West 11.5 mph - N/A Snow Light Snow
5:35 PM 10.4 °F -4.1 °F 6.8 °F 85% 30.17 in 4.0 mi West 11.5 mph 18.4 mph N/A Snow Light Snow
5:54 PM 8.6 °F -7.0 °F 5.0 °F 85% 30.18 in 10.0 mi West 12.7 mph - N/A   Mostly Cloudy
6:14 PM 10.4 °F -2.4 °F 6.8 °F 85% 30.19 in 2.0 mi West 9.2 mph - N/A Snow Light Snow
6:35 PM 10.4 °F -4.8 °F 6.8 °F 85% 30.19 in 1.5 mi West 12.7 mph 17.3 mph N/A Snow Light Snow
6:54 PM 8.6 °F -5.5 °F 5.0 °F 85% 30.20 in 7.0 mi West 10.4 mph 17.3 mph N/A Snow Light Snow
7:14 PM 8.6 °F -4.7 °F 5.0 °F 85% 30.20 in 7.0 mi West 9.2 mph - N/A Snow Light Snow
7:35 PM 8.6 °F -5.5 °F 3.2 °F 79% 30.21 in 4.0 mi WSW 10.4 mph - N/A Snow Light Snow
7:54 PM 8.6 °F -2.6 °F 3.2 °F 79% 30.21 in 4.0 mi WSW 6.9 mph - N/A Snow Light Snow
8:15 PM 8.6 °F -2.6 °F 5.0 °F 85% 30.22 in 2.5 mi WSW 6.9 mph - N/A Snow Light Snow
8:35 PM 8.6 °F -4.7 °F 3.2 °F 79% 30.22 in 4.0 mi WSW 9.2 mph - N/A Snow Light Snow
8:54 PM 6.8 °F -5.9 °F 3.2 °F 85% 30.22 in 4.0 mi SW 8.1 mph - N/A Snow Light Snow
9:15 PM 6.8 °F -8.6 °F 3.2 °F 85% 30.22 in 2.0 mi WSW 11.5 mph - N/A Snow Light Snow
9:54 PM 6.8 °F -10.0 °F 3.2 °F 85% 30.22 in 2.0 mi SW 13.8 mph - N/A Snow Light Snow
10:15 PM 6.8 °F -10.0 °F 3.2 °F 85% 30.22 in 4.0 mi SW 13.8 mph - N/A Snow Light Snow
10:34 PM 6.8 °F -10.0 °F 1.4 °F 79% 30.22 in 5.0 mi SW 13.8 mph - N/A Snow Light Snow
10:55 PM 5.0 °F -10.8 °F 1.4 °F 85% 30.22 in 7.0 mi SW 11.5 mph - N/A   Clear
11:15 PM 5.0 °F -10.8 °F 1.4 °F 85% 30.22 in 10.0 mi WSW 11.5 mph - N/A   Clear
11:34 PM 5.0 °F -10.8 °F 1.4 °F 85% 30.22 in 10.0 mi WSW 11.5 mph 17.3 mph N/A   Clear
11:55 PM 5.0 °F -11.6 °F 1.4 °F 85% 30.23 in 10.0 mi SW 12.7 mph 18.4 mph N/A   Mostly Cloudy